Time,TemperatureF,DewpointF,PressureIn,WindDirection,WindDirectionDegrees,WindSpeedMPH,WindSpeedGustMPH,Humidity,HourlyPrecipIn,Conditions,Clouds,dailyrainin,SoftwareType,DateUTC
2013-05-06 00:12:00,29.3,27.5,29.86,ESE,112,1.1,-999.0,93,-99.99,,,0.00,Acu-Link.com,2013-05-06 06:12:00,
2013-05-06 00:27:00,29.7,27.1,29.86,ESE,112,1.7,-999.0,90,-99.99,,,0.00,Acu-Link.com,2013-05-06 06:27:00,
2013-05-06 00:43:00,29.5,26.9,29.86,ESE,112,1.1,-999.0,90,-99.99,,,0.00,Acu-Link.com,2013-05-06 06:43:00,
2013-05-06 00:58:00,29.1,27.3,29.86,ESE,112,0.0,-999.0,93,-99.99,,,0.00,Acu-Link.com,2013-05-06 06:58:00,
2013-05-06 01:13:00,28.6,27.1,29.85,ESE,112,0.0,-999.0,94,-99.99,,,0.00,Acu-Link.com,2013-05-06 07:13:00,
2013-05-06 01:28:00,28.6,27.4,29.85,ESE,112,1.7,-999.0,95,-99.99,,,0.00,Acu-Link.com,2013-05-06 07:28:00,
2013-05-06 01:43:00,28.4,27.2,29.84,ESE,112,0.0,-999.0,95,-99.99,,,0.00,Acu-Link.com,2013-05-06 07:43:00,
2013-05-06 01:58:00,28.4,27.2,29.85,ESE,112,1.7,-999.0,95,-99.99,,,0.00,Acu-Link.com,2013-05-06 07:58:00,
2013-05-06 02:14:00,28.6,27.6,29.84,ESE,112,0.0,-999.0,96,-99.99,,,0.00,Acu-Link.com,2013-05-06 08:14:00,
2013-05-06 02:29:00,28.4,27.4,29.84,ESE,112,0.0,-999.0,96,-99.99,,,0.00,Acu-Link.com,2013-05-06 08:29:00,
2013-05-06 02:44:00,27.9,27.2,29.84,ESE,112,0.0,-999.0,97,-99.99,,,0.00,Acu-Link.com,2013-05-06 08:44:00,
2013-05-06 02:59:00,27.9,27.2,29.83,ESE,112,0.0,-999.0,97,-99.99,,,0.00,Acu-Link.com,2013-05-06 08:59:00,
2013-05-06 03:14:00,27.9,26.9,29.83,ESE,112,0.0,-999.0,96,-99.99,,,0.00,Acu-Link.com,2013-05-06 09:14:00,
2013-05-06 03:29:00,28.6,27.4,29.84,ESE,112,2.2,-999.0,95,-99.99,,,0.00,Acu-Link.com,2013-05-06 09:29:00,
2013-05-06 03:45:00,29.1,27.3,29.83,ESE,112,1.7,-999.0,93,-99.99,,,0.00,Acu-Link.com,2013-05-06 09:45:00,
2013-05-06 04:00:00,28.9,27.1,29.82,ESE,112,0.0,-999.0,93,-99.99,,,0.00,Acu-Link.com,2013-05-06 10:00:00,
2013-05-06 04:15:00,28.4,27.2,29.83,ESE,112,0.0,-999.0,95,-99.99,,,0.00,Acu-Link.com,2013-05-06 10:15:00,
2013-05-06 04:30:00,28.8,27.3,29.82,ESE,112,1.1,-999.0,94,-99.99,,,0.00,Acu-Link.com,2013-05-06 10:30:00,
2013-05-06 04:45:00,27.9,26.9,29.82,ESE,112,0.0,-999.0,96,-99.99,,,0.00,Acu-Link.com,2013-05-06 10:45:00,
2013-05-06 05:00:00,27.9,26.9,29.82,ESE,112,0.0,-999.0,96,-99.99,,,0.00,Acu-Link.com,2013-05-06 11:00:00,
2013-05-06 05:15:00,27.9,26.7,29.82,ESE,112,0.0,-999.0,95,-99.99,,,0.00,Acu-Link.com,2013-05-06 11:15:00,
2013-05-06 05:30:00,28.4,26.6,29.82,ESE,112,0.0,-999.0,93,-99.99,,,0.00,Acu-Link.com,2013-05-06 11:30:00,
2013-05-06 05:45:00,28.6,26.8,29.82,ESE,112,0.0,-999.0,93,-99.99,,,0.00,Acu-Link.com,2013-05-06 11:45:00,
2013-05-06 06:00:00,27.9,26.4,29.83,ESE,112,0.0,-999.0,94,-99.99,,,0.00,Acu-Link.com,2013-05-06 12:00:00,
2013-05-06 06:16:00,27.5,26.3,29.83,ESE,112,0.0,-999.0,95,-99.99,,,0.00,Acu-Link.com,2013-05-06 12:16:00,
2013-05-06 06:31:00,28.6,27.4,29.83,ESE,112,0.0,-999.0,95,-99.99,,,0.00,Acu-Link.com,2013-05-06 12:31:00,
2013-05-06 06:46:00,29.8,27.8,29.83,ESE,112,0.0,-999.0,92,-99.99,,,0.00,Acu-Link.com,2013-05-06 12:46:00,
2013-05-06 07:01:00,30.4,28.4,29.84,ESE,112,0.0,-999.0,92,-99.99,,,0.00,Acu-Link.com,2013-05-06 13:01:00,
2013-05-06 07:16:00,31.3,28.4,29.84,ESE,112,0.0,-999.0,89,-99.99,,,0.00,Acu-Link.com,2013-05-06 13:16:00,
2013-05-06 07:31:00,32.7,29.3,29.84,ESE,112,0.0,-999.0,87,-99.99,,,0.00,Acu-Link.com,2013-05-06 13:31:00,
2013-05-06 07:46:00,33.8,29.8,29.84,ESE,112,1.7,-999.0,85,-99.99,,,0.00,Acu-Link.com,2013-05-06 13:46:00,
2013-05-06 08:02:00,36.0,31.0,29.84,ESE,112,0.0,-999.0,82,-99.99,,,0.00,Acu-Link.com,2013-05-06 14:02:00,
2013-05-06 08:17:00,38.1,31.2,29.84,ESE,112,0.0,-999.0,76,-99.99,,,0.00,Acu-Link.com,2013-05-06 14:17:00,
2013-05-06 08:32:00,40.1,30.4,29.84,ESE,112,2.2,-999.0,68,-99.99,,,0.00,Acu-Link.com,2013-05-06 14:32:00,
2013-05-06 08:47:00,41.9,30.2,29.84,ESE,112,1.7,-999.0,63,-99.99,,,0.00,Acu-Link.com,2013-05-06 14:47:00,
2013-05-06 09:02:00,43.3,29.5,29.85,ESE,112,2.2,-999.0,58,-99.99,,,0.01,Acu-Link.com,2013-05-06 15:02:00,
2013-05-06 09:17:00,45.0,29.4,29.85,ESE,112,2.7,-999.0,54,-99.99,,,0.03,Acu-Link.com,2013-05-06 15:17:00,
2013-05-06 09:32:00,48.0,28.2,29.84,ESE,112,2.2,-999.0,46,-99.99,,,0.03,Acu-Link.com,2013-05-06 15:32:00,
2013-05-06 09:47:00,47.7,29.5,29.85,ESE,112,2.7,-999.0,49,-99.99,,,0.03,Acu-Link.com,2013-05-06 15:47:00,
2013-05-06 10:03:00,49.3,28.3,29.84,ESE,112,1.7,-999.0,44,-99.99,,,0.03,Acu-Link.com,2013-05-06 16:03:00,
2013-05-06 10:18:00,49.5,27.9,29.84,ESE,112,2.2,-999.0,43,-99.99,,,0.03,Acu-Link.com,2013-05-06 16:18:00,
2013-05-06 10:33:00,49.5,27.9,29.84,ESE,112,3.2,-999.0,43,-99.99,,,0.03,Acu-Link.com,2013-05-06 16:33:00,
2013-05-06 10:48:00,46.8,26.1,29.84,ESE,112,5.3,-999.0,44,-99.99,,,0.03,Acu-Link.com,2013-05-06 16:48:00,
2013-05-06 11:03:00,53.2,27.6,29.84,SSE,157,3.7,-999.0,37,-99.99,,,0.03,Acu-Link.com,2013-05-06 17:03:00,
2013-05-06 11:18:00,46.9,25.6,29.84,SW,225,2.2,-999.0,43,-99.99,,,0.03,Acu-Link.com,2013-05-06 17:18:00,
2013-05-06 11:34:00,45.5,25.9,29.83,WSW,247,0.0,-999.0,46,-99.99,,,0.03,Acu-Link.com,2013-05-06 17:34:00,
2013-05-06 11:49:00,44.8,25.3,29.83,SSE,157,2.2,-999.0,46,-99.99,,,0.03,Acu-Link.com,2013-05-06 17:49:00,
2013-05-06 12:04:00,44.1,27.1,29.84,SE,135,1.7,-999.0,51,-99.99,,,0.03,Acu-Link.com,2013-05-06 18:04:00,
2013-05-06 12:19:00,41.4,28.6,29.83,SE,135,2.7,-999.0,60,-99.99,,,0.03,Acu-Link.com,2013-05-06 18:19:00,
2013-05-06 12:34:00,43.3,29.9,29.84,SE,135,2.2,-999.0,59,-99.99,,,0.03,Acu-Link.com,2013-05-06 18:34:00,
2013-05-06 12:50:00,39.2,29.9,29.84,SE,135,2.7,-999.0,69,-99.99,,,0.03,Acu-Link.com,2013-05-06 18:50:00,
2013-05-06 13:05:00,38.5,30.6,29.85,SE,135,1.7,-999.0,73,-99.99,,,0.03,Acu-Link.com,2013-05-06 19:05:00,
2013-05-06 13:20:00,37.0,31.4,29.85,SE,135,1.7,-999.0,80,-99.99,,,0.03,Acu-Link.com,2013-05-06 19:20:00,
2013-05-06 13:35:00,36.3,31.3,29.85,SE,135,1.7,-999.0,82,-99.99,,,0.03,Acu-Link.com,2013-05-06 19:35:00,
2013-05-06 13:50:00,36.1,31.7,29.84,SE,135,2.2,-999.0,84,-99.99,,,0.03,Acu-Link.com,2013-05-06 19:50:00,
2013-05-06 14:05:00,35.6,31.8,29.84,SE,135,2.2,-999.0,86,-99.99,,,0.03,Acu-Link.com,2013-05-06 20:05:00,
2013-05-06 14:20:00,36.3,31.9,29.83,SE,135,1.7,-999.0,84,-99.99,,,0.04,Acu-Link.com,2013-05-06 20:20:00,
2013-05-06 14:35:00,36.3,32.2,29.83,SE,135,1.7,-999.0,85,-99.99,,,0.04,Acu-Link.com,2013-05-06 20:35:00,
2013-05-06 14:51:00,36.0,32.2,29.83,SE,135,2.2,-999.0,86,-99.99,,,0.04,Acu-Link.com,2013-05-06 20:51:00,
2013-05-06 15:06:00,38.3,32.1,29.82,SE,135,3.7,-999.0,78,-99.99,,,0.05,Acu-Link.com,2013-05-06 21:06:00,
2013-05-06 15:21:00,39.6,32.0,29.81,SE,135,0.0,-999.0,74,-99.99,,,0.05,Acu-Link.com,2013-05-06 21:21:00,
2013-05-06 15:36:00,40.5,31.5,29.80,SE,135,1.1,-999.0,70,-99.99,,,0.05,Acu-Link.com,2013-05-06 21:36:00,
2013-05-06 15:51:00,41.4,30.5,29.80,SE,135,3.2,-999.0,65,-99.99,,,0.05,Acu-Link.com,2013-05-06 21:51:00,
2013-05-06 16:06:00,46.0,28.9,29.79,SE,135,2.2,-999.0,51,-99.99,,,0.05,Acu-Link.com,2013-05-06 22:06:00,
2013-05-06 16:21:00,47.5,29.3,29.78,South,180,7.8,-999.0,49,-99.99,,,0.05,Acu-Link.com,2013-05-06 22:21:00,
2013-05-06 16:36:00,49.1,30.3,29.78,ENE,67,2.2,-999.0,48,-99.99,,,0.05,Acu-Link.com,2013-05-06 22:36:00,
2013-05-06 16:51:00,48.0,29.8,29.78,ENE,67,1.1,-999.0,49,-99.99,,,0.05,Acu-Link.com,2013-05-06 22:51:00,
2013-05-06 17:07:00,44.8,29.6,29.78,ENE,67,2.7,-999.0,55,-99.99,,,0.05,Acu-Link.com,2013-05-06 23:07:00,
2013-05-06 17:22:00,44.1,29.9,29.78,ENE,67,0.0,-999.0,57,-99.99,,,0.05,Acu-Link.com,2013-05-06 23:22:00,
2013-05-06 17:37:00,43.0,29.7,29.79,ENE,67,3.2,-999.0,59,-99.99,,,0.05,Acu-Link.com,2013-05-06 23:37:00,
2013-05-06 17:52:00,40.5,30.8,29.79,ENE,67,2.2,-999.0,68,-99.99,,,0.05,Acu-Link.com,2013-05-06 23:52:00,
2013-05-06 18:07:00,40.8,30.0,29.79,ENE,67,1.1,-999.0,65,-99.99,,,0.05,Acu-Link.com,2013-05-07 00:07:00,
2013-05-06 18:22:00,40.6,29.0,29.79,ENE,67,0.0,-999.0,63,-99.99,,,0.05,Acu-Link.com,2013-05-07 00:22:00,
2013-05-06 18:37:00,39.0,30.4,29.79,ENE,67,2.7,-999.0,71,-99.99,,,0.05,Acu-Link.com,2013-05-07 00:37:00,
2013-05-06 18:52:00,36.7,31.7,29.80,ENE,67,2.7,-999.0,82,-99.99,,,0.05,Acu-Link.com,2013-05-07 00:52:00,
2013-05-06 19:07:00,35.1,31.6,29.79,ENE,67,0.0,-999.0,87,-99.99,,,0.05,Acu-Link.com,2013-05-07 01:07:00,
2013-05-06 19:23:00,34.5,31.9,29.79,ENE,67,2.7,-999.0,90,-99.99,,,0.05,Acu-Link.com,2013-05-07 01:23:00,
2013-05-06 19:38:00,33.6,31.8,29.79,ENE,67,1.1,-999.0,93,-99.99,,,0.05,Acu-Link.com,2013-05-07 01:38:00,
2013-05-06 19:53:00,33.4,31.9,29.79,ENE,67,0.0,-999.0,94,-99.99,,,0.06,Acu-Link.com,2013-05-07 01:53:00,
2013-05-06 20:08:00,33.3,31.8,29.79,ENE,67,1.1,-999.0,94,-99.99,,,0.06,Acu-Link.com,2013-05-07 02:08:00,
2013-05-06 20:23:00,33.1,31.3,29.79,ENE,67,0.0,-999.0,93,-99.99,,,0.06,Acu-Link.com,2013-05-07 02:23:00,
2013-05-06 20:38:00,33.1,31.0,29.79,ENE,67,0.0,-999.0,92,-99.99,,,0.06,Acu-Link.com,2013-05-07 02:38:00,
2013-05-06 20:53:00,32.4,30.9,29.79,ENE,67,0.0,-999.0,94,-99.99,,,0.06,Acu-Link.com,2013-05-07 02:53:00,
2013-05-06 21:08:00,31.6,30.6,29.79,ENE,67,2.7,-999.0,96,-99.99,,,0.06,Acu-Link.com,2013-05-07 03:08:00,
2013-05-06 21:23:00,31.5,30.2,29.79,ENE,67,0.0,-999.0,95,-99.99,,,0.06,Acu-Link.com,2013-05-07 03:23:00,
2013-05-06 21:39:00,30.9,30.2,29.80,ENE,67,1.7,-999.0,97,-99.99,,,0.06,Acu-Link.com,2013-05-07 03:39:00,
2013-05-06 21:54:00,30.7,29.7,29.80,ENE,67,0.0,-999.0,96,-99.99,,,0.06,Acu-Link.com,2013-05-07 03:54:00,
2013-05-06 22:09:00,30.4,30.2,29.80,ENE,67,1.7,-999.0,99,-99.99,,,0.06,Acu-Link.com,2013-05-07 04:09:00,
2013-05-06 22:24:00,30.0,29.8,29.79,ENE,67,0.0,-999.0,99,-99.99,,,0.06,Acu-Link.com,2013-05-07 04:24:00,
2013-05-06 22:39:00,29.8,29.6,29.79,ENE,67,2.2,-999.0,99,-99.99,,,0.06,Acu-Link.com,2013-05-07 04:39:00,
2013-05-06 22:54:00,30.0,29.8,29.78,ENE,67,1.1,-999.0,99,-99.99,,,0.06,Acu-Link.com,2013-05-07 04:54:00,
2013-05-06 23:09:00,30.2,30.0,29.78,ENE,67,2.2,-999.0,99,-99.99,,,0.06,Acu-Link.com,2013-05-07 05:09:00,
2013-05-06 23:24:00,30.4,30.2,29.79,ENE,67,1.7,-999.0,99,-99.99,,,0.06,Acu-Link.com,2013-05-07 05:24:00,
2013-05-06 23:39:00,30.6,30.4,29.78,ENE,67,0.0,-999.0,99,-99.99,,,0.06,Acu-Link.com,2013-05-07 05:39:00,
2013-05-06 23:54:00,30.6,30.4,29.78,ENE,67,0.0,-999.0,99,-99.99,,,0.06,Acu-Link.com,2013-05-07 05:54:00,